TimePST,TemperatureF,Dew PointF,Humidity,Sea Level PressureIn,VisibilityMPH,Wind Direction,Wind SpeedMPH,Gust SpeedMPH,PrecipitationIn,Events,Conditions,WindDirDegrees,DateUTC
12:53 AM,55.9,51.1,84,29.97,5.0,East,5.8,-,N/A,,Haze,90,2012-12-12 08:53:00
1:53 AM,55.0,50.0,83,29.96,5.0,East,6.9,-,N/A,,Haze,100,2012-12-12 09:53:00
2:53 AM,54.0,48.9,83,29.95,5.0,ENE,3.5,-,N/A,,Haze,60,2012-12-12 10:53:00
3:08 AM,53.6,48.2,82,29.95,5.0,ENE,4.6,-,N/A,,Haze,60,2012-12-12 11:08:00
3:53 AM,53.1,48.9,86,29.94,5.0,East,3.5,-,N/A,,Mostly Cloudy,80,2012-12-12 11:53:00
4:53 AM,53.1,48.9,86,29.95,6.0,East,4.6,-,N/A,,Overcast,80,2012-12-12 12:53:00
5:09 AM,51.8,48.2,88,29.95,6.0,East,4.6,-,N/A,,Scattered Clouds,80,2012-12-12 13:09:00
5:53 AM,52.0,48.9,89,29.96,6.0,East,4.6,-,N/A,,Partly Cloudy,80,2012-12-12 13:53:00
6:53 AM,52.0,46.9,83,29.96,6.0,East,4.6,-,N/A,,Haze,80,2012-12-12 14:53:00
7:53 AM,54.0,48.0,80,29.96,6.0,East,4.6,-,N/A,,Haze,100,2012-12-12 15:53:00
8:53 AM,59.0,50.0,72,29.96,8.0,ESE,6.9,-,N/A,,Clear,110,2012-12-12 16:53:00
9:53 AM,63.0,48.9,60,29.96,10.0,SE,4.6,-,N/A,,Partly Cloudy,130,2012-12-12 17:53:00
10:53 AM,63.0,48.0,58,29.95,10.0,South,4.6,-,N/A,,Clear,180,2012-12-12 18:53:00
11:53 AM,64.0,48.9,58,29.91,10.0,WSW,6.9,-,N/A,,Partly Cloudy,250,2012-12-12 19:53:00
12:53 PM,64.0,48.0,56,29.89,10.0,WSW,10.4,-,N/A,,Clear,240,2012-12-12 20:53:00
1:53 PM,64.0,48.9,58,29.88,10.0,SW,11.5,-,N/A,,Clear,230,2012-12-12 21:53:00
2:53 PM,63.0,48.9,60,29.88,10.0,South,6.9,-,N/A,,Scattered Clouds,180,2012-12-12 22:53:00
3:53 PM,62.6,51.8,68,29.88,10.0,South,6.9,-,N/A,,Partly Cloudy,190,2012-12-12 23:53:00
4:07 PM,62.6,51.8,68,29.88,10.0,South,8.1,-,N/A,,Mostly Cloudy,180,2012-12-13 00:07:00
4:17 PM,60.8,51.8,72,29.88,10.0,South,8.1,-,N/A,,Mostly Cloudy,180,2012-12-13 00:17:00
4:53 PM,61.0,51.1,70,29.87,10.0,South,4.6,-,N/A,,Mostly Cloudy,180,2012-12-13 00:53:00
5:53 PM,61.0,51.1,70,29.87,10.0,SE,5.8,-,N/A,,Overcast,140,2012-12-13 01:53:00
6:53 PM,60.1,50.0,69,29.87,10.0,ESE,5.8,-,N/A,,Mostly Cloudy,120,2012-12-13 02:53:00
7:53 PM,60.1,51.1,72,29.86,10.0,SSE,9.2,-,N/A,,Overcast,150,2012-12-13 03:53:00
8:53 PM,60.1,51.1,72,29.86,10.0,SE,9.2,-,0.00,,Overcast,140,2012-12-13 04:53:00
9:53 PM,60.1,52.0,75,29.87,10.0,SSE,9.2,-,0.00,,Overcast,150,2012-12-13 05:53:00
10:53 PM,60.1,52.0,75,29.87,10.0,South,8.1,-,0.00,,Overcast,170,2012-12-13 06:53:00
11:42 PM,60.8,51.8,72,29.86,10.0,SSE,4.6,-,N/A,,Overcast,150,2012-12-13 07:42:00
11:53 PM,60.1,52.0,75,29.86,9.0,SE,4.6,-,0.00,Rain,Light Rain,140,2012-12-13 07:53:00